Location: Newark
(51.2625°N, 13.3939°E)
Time: 13:00:08
(UTC+00:00)

A-11 Canister half - Visible Passes

Search period start: 13 November 2019 00:00
Search period end: 23 November 2019 00:00
Orbit: 1514 x 1686 km, 47.2° (Epoch: 12 November)

Date Brightness Start Highest point End Pass type
(mag) Time Alt. Az. Time Alt. Az. Time Alt. Az.
13 Nov 10.5 16:21:08 10° SSE 16:26:36 16° SE 16:31:47 11° E visible
13 Nov 9.4 18:20:12 10° SSW 18:29:32 43° SSE 18:30:00 43° SE visible
13 Nov 10.2 20:23:39 10° WSW 20:28:13 31° WSW 20:28:13 31° WSW visible
14 Nov 10.6 15:58:51 10° SSE 16:03:49 15° SE 16:08:47 10° E visible
14 Nov 9.5 17:57:25 10° SSW 18:06:39 42° SE 18:08:31 39° ESE visible
14 Nov 9.9 20:00:43 10° WSW 20:06:44 41° SW 20:06:44 41° SW visible
15 Nov 9.6 17:34:39 10° SSW 17:43:46 40° SE 17:47:00 33° ESE visible
15 Nov 9.5 19:37:48 10° WSW 19:45:12 52° SW 19:45:12 52° SW visible
15 Nov 11.1 21:42:27 10° W 21:43:25 14° W 21:43:25 14° W visible
16 Nov 9.7 17:11:54 10° SSW 17:20:54 38° SE 17:25:26 26° E visible
16 Nov 9.2 19:14:54 10° WSW 19:23:38 61° SSW 19:23:38 61° SSW visible
16 Nov 10.8 21:19:30 10° W 21:21:50 19° W 21:21:50 19° W visible
17 Nov 9.8 16:49:09 10° SSW 16:58:02 37° SE 17:03:50 21° E visible
17 Nov 9.1 18:51:59 10° WSW 19:02:00 65° SSE 19:02:02 65° SSE visible
17 Nov 10.5 20:56:34 10° W 21:00:14 26° W 21:00:14 26° W visible
18 Nov 9.9 16:26:26 10° SSW 16:35:10 35° SE 16:42:12 16° E visible
18 Nov 9.1 18:29:06 10° WSW 18:39:04 64° SSE 18:40:24 59° SE visible
18 Nov 10.2 20:33:37 10° W 20:38:35 34° W 20:38:35 34° W visible
19 Nov 10.0 16:03:43 10° SSW 16:12:19 34° SE 16:20:33 11° E visible
19 Nov 9.2 18:06:13 10° WSW 18:16:08 63° SSE 18:18:44 50° ESE visible
19 Nov 9.8 20:10:40 10° W 20:16:56 43° WSW 20:16:56 43° WSW visible
20 Nov 10.1 15:41:02 10° SSW 15:49:27 32° SE 15:57:59 10° E visible
20 Nov 9.2 17:43:20 10° WSW 17:53:12 61° SSE 17:57:04 40° ESE visible
20 Nov 9.5 19:47:43 10° W 19:55:15 54° WSW 19:55:15 54° WSW visible
20 Nov 11.1 21:52:35 10° W 21:53:27 13° W 21:53:27 13° W visible
21 Nov 9.3 17:20:27 10° SW 17:30:17 60° SSE 17:35:22 32° E visible
21 Nov 9.2 19:24:47 10° W 19:33:33 65° SW 19:33:33 65° SW visible
21 Nov 10.9 21:29:37 10° W 21:31:45 18° W 21:31:45 18° W visible
22 Nov 9.4 16:57:35 10° SW 17:07:22 58° SSE 17:13:39 25° E visible
22 Nov 9.1 19:01:50 10° W 19:11:50 72° S 19:11:50 72° S visible
22 Nov 10.6 21:06:40 10° W 21:10:02 24° W 21:10:02 24° W visible
